| time (UTC) | temp F | wind direction | speed MPH | gust MPH | rain 1hr in | rain 24hr in | rain mn in | humidity % | barometer mb |
| 20260507225120 | 53 | 155 | 1.0 | 3.0 | 0.00 | 2.32 | 0.00 | 87 | 1015.0 |
| 20260507224133 | 54 | 155 | 1.0 | 4.0 | 0.00 | 2.32 | 0.00 | 86 | 1015.0 |
| 20260507223119 | 54 | 155 | 0.0 | 3.0 | 0.00 | 2.32 | 0.00 | 86 | 1015.0 |
| 20260507222148 | 54 | 154 | 1.0 | 3.0 | 0.00 | 2.32 | 0.00 | 85 | 1015.0 |
| 20260507221131 | 55 | 154 | 1.0 | 5.0 | 0.00 | 2.32 | 0.00 | 84 | 1015.0 |
| 20260507220120 | 55 | 151 | 0.0 | 1.0 | 0.00 | 2.32 | 0.00 | 83 | 1014.9 |
| 20260507215127 | 56 | 151 | 0.0 | 0.0 | 0.00 | 3.35 | 0.59 | 82 | 1014.8 |
| 20260507214156 | 57 | 151 | 0.0 | 1.0 | 0.00 | 3.35 | 0.59 | 79 | 1014.7 |
| 20260507213118 | 58 | 151 | 0.0 | 2.0 | 0.00 | 3.35 | 0.59 | 77 | 1014.6 |
| 20260507212130 | 58 | 163 | 0.0 | 3.0 | 0.00 | 3.35 | 0.59 | 76 | 1014.5 |
| 20260507211132 | 57 | 171 | 0.0 | 3.0 | 0.00 | 3.35 | 0.59 | 78 | 1014.6 |
| 20260507210139 | 56 | 171 | 0.0 | 3.0 | 0.00 | 3.35 | 0.59 | 82 | 1014.5 |
| 20260507205126 | 56 | 172 | 1.0 | 3.0 | 0.00 | 3.39 | 0.59 | 84 | 1014.6 |
| 20260507204118 | 56 | 172 | 1.0 | 2.0 | 0.00 | 3.39 | 0.59 | 84 | 1014.5 |
| 20260507203124 | 56 | 172 | 0.0 | 1.0 | 0.00 | 3.39 | 0.59 | 84 | 1014.4 |
| 20260507202129 | 56 | 172 | 0.0 | 1.0 | 0.00 | 3.39 | 0.59 | 84 | 1014.5 |
| 20260507201152 | 56 | 172 | 0.0 | 2.0 | 0.00 | 3.39 | 0.59 | 85 | 1014.4 |
| 20260507200129 | 56 | 172 | 1.0 | 3.0 | 0.00 | 3.39 | 0.59 | 84 | 1014.2 |
| 20260507195120 | 56 | 172 | 1.0 | 2.0 | 0.00 | 3.74 | 0.59 | 84 | 1014.1 |
| 20260507194121 | 57 | 172 | 1.0 | 4.0 | 0.00 | 3.74 | 0.59 | 84 | 1013.9 |
| 20260507193127 | 58 | 171 | 1.0 | 3.0 | 0.00 | 3.74 | 0.59 | 82 | 1013.7 |
| 20260507192123 | 59 | 171 | 0.0 | 1.0 | 0.00 | 3.74 | 0.59 | 80 | 1013.5 |
| 20260507191153 | 59 | 171 | 1.0 | 3.0 | 0.00 | 3.74 | 0.59 | 79 | 1013.4 |
| 20260507190119 | 60 | 171 | 0.0 | 1.0 | 0.00 | 3.74 | 0.59 | 79 | 1013.3 |
| 20260507185126 | 60 | 171 | 0.0 | 2.0 | 0.00 | 3.74 | 0.59 | 79 | 1013.2 |
| 20260507184132 | 61 | 171 | 1.0 | 2.0 | 0.00 | 3.74 | 0.59 | 77 | 1013.2 |
| 20260507183159 | 61 | 171 | 0.0 | 2.0 | 0.00 | 3.74 | 0.59 | 76 | 1013.1 |
| 20260507182128 | 61 | 171 | 0.0 | 3.0 | 0.00 | 3.74 | 0.59 | 73 | 1013.1 |
| 20260507181134 | 62 | 171 | 1.0 | 4.0 | 0.00 | 3.74 | 0.59 | 76 | 1013.0 |
| 20260507180120 | 62 | 171 | 0.0 | 2.0 | 0.00 | 3.74 | 0.59 | 72 | 1012.9 |
| 20260507175145 | 63 | 171 | 1.0 | 2.0 | 0.00 | 3.74 | 0.59 | 70 | 1012.8 |
| 20260507174117 | 64 | 171 | 0.0 | 3.0 | 0.00 | 3.74 | 0.59 | 67 | 1012.7 |
| 20260507173124 | 64 | 171 | 0.0 | 1.0 | 0.00 | 3.74 | 0.59 | 66 | 1012.6 |
| 20260507172132 | 65 | 171 | 0.0 | 1.0 | 0.00 | 3.74 | 0.59 | 63 | 1012.5 |
| 20260507171118 | 66 | 171 | 0.0 | 2.0 | 0.00 | 3.74 | 0.59 | 56 | 1012.5 |
| 20260507170130 | 66 | 171 | 0.0 | 2.0 | 0.00 | 3.74 | 0.59 | 53 | 1012.4 |
| 20260507165135 | 68 | 171 | 1.0 | 2.0 | 0.00 | 3.74 | 0.59 | 50 | 1012.4 |
| 20260507164142 | 69 | 171 | 0.0 | 3.0 | 0.00 | 3.74 | 0.59 | 48 | 1012.4 |
| 20260507163147 | 69 | 168 | 1.0 | 3.0 | 0.00 | 3.74 | 0.59 | 51 | 1012.4 |
| 20260507162118 | 69 | 157 | 1.0 | 5.0 | 0.00 | 3.74 | 0.59 | 49 | 1012.4 |
| 20260507161126 | 69 | 172 | 0.0 | 3.0 | 0.00 | 3.74 | 0.59 | 49 | 1012.3 |
| 20260507160136 | 69 | 171 | 1.0 | 3.0 | 0.00 | 3.74 | 0.59 | 47 | 1012.3 |
| 20260507155121 | 69 | 161 | 1.0 | 4.0 | 0.00 | 3.74 | 0.59 | 47 | 1012.3 |
| 20260507154154 | 69 | 221 | 1.0 | 4.0 | 0.00 | 3.74 | 0.59 | 46 | 1012.3 |
| 20260507153117 | 70 | 179 | 1.0 | 5.0 | 0.00 | 3.74 | 0.59 | 48 | 1012.3 |
| 20260507152127 | 69 | 132 | 1.0 | 4.0 | 0.00 | 3.74 | 0.59 | 51 | 1012.4 |
| 20260507151131 | 69 | 252 | 1.0 | 4.0 | 0.00 | 3.74 | 0.59 | 51 | 1012.3 |
| 20260507150135 | 69 | 268 | 1.0 | 3.0 | 0.00 | 3.74 | 0.59 | 54 | 1012.4 |
| 20260507145143 | 68 | 290 | 3.0 | 5.0 | 0.00 | 3.74 | 0.59 | 52 | 1012.5 |
| 20260507144130 | 67 | 175 | 1.0 | 4.0 | 0.00 | 3.74 | 0.59 | 55 | 1012.5 |
| 20260507143117 | 67 | 38 | 0.0 | 4.0 | 0.00 | 3.74 | 0.59 | 56 | 1012.6 |
| 20260507142129 | 66 | 38 | 1.0 | 4.0 | 0.00 | 3.74 | 0.59 | 57 | 1012.6 |
| 20260507141139 | 66 | 22 | 1.0 | 4.0 | 0.00 | 3.74 | 0.59 | 64 | 1012.7 |
| 20260507140141 | 65 | 225 | 1.0 | 3.0 | 0.08 | 3.74 | 0.59 | 63 | 1012.8 |
| 20260507135127 | 64 | 223 | 0.0 | 3.0 | 0.08 | 3.74 | 0.59 | 66 | 1012.9 |
| 20260507134118 | 63 | 223 | 0.0 | 3.0 | 0.08 | 3.74 | 0.59 | 69 | 1013.0 |
| 20260507133127 | 62 | 223 | 0.0 | 4.0 | 0.08 | 3.74 | 0.59 | 79 | 1013.1 |
| 20260507132135 | 61 | 219 | 1.0 | 4.0 | 0.08 | 3.74 | 0.59 | 82 | 1013.2 |
| 20260507131123 | 62 | 62 | 0.0 | 3.0 | 0.08 | 3.74 | 0.59 | 73 | 1013.2 |
| 20260507130132 | 62 | 74 | 1.0 | 3.0 | 0.00 | 3.66 | 0.57 | 70 | 1013.3 |
| 20260507125118 | 63 | 69 | 1.0 | 4.0 | 0.00 | 3.66 | 0.57 | 68 | 1013.3 |
| 20260507124127 | 64 | 30 | 1.0 | 8.0 | 0.00 | 3.66 | 0.57 | 67 | 1013.2 |
| 20260507123135 | 66 | 344 | 2.0 | 4.0 | 0.00 | 3.66 | 0.57 | 62 | 1013.3 |
| 20260507122126 | 66 | 344 | 1.0 | 3.0 | 0.00 | 3.66 | 0.57 | 60 | 1013.2 |
| 20260507121135 | 66 | 269 | 2.0 | 4.0 | 0.00 | 3.66 | 0.57 | 58 | 1013.3 |
| 20260507120123 | 66 | 107 | 1.0 | 4.0 | 0.00 | 3.66 | 0.57 | 57 | 1013.3 |
| 20260507115130 | 68 | 204 | 1.0 | 4.0 | 0.00 | 6.38 | 0.57 | 56 | 1013.5 |
| 20260507114122 | 68 | 82 | 1.0 | 6.0 | 0.00 | 6.38 | 0.57 | 62 | 1013.4 |
| 20260507113130 | 68 | 110 | 2.0 | 5.0 | 0.00 | 6.38 | 0.57 | 56 | 1013.5 |
| 20260507112118 | 68 | 78 | 1.0 | 6.0 | 0.00 | 6.38 | 0.57 | 60 | 1013.6 |
| 20260507111126 | 67 | 168 | 2.0 | 6.0 | 0.00 | 6.38 | 0.57 | 58 | 1013.5 |
| 20260507110117 | 67 | 160 | 2.0 | 7.0 | 0.00 | 6.38 | 0.57 | 56 | 1013.7 |
| 20260507105125 | 66 | 87 | 2.0 | 8.0 | 0.00 | 6.97 | 0.57 | 61 | 1013.9 |
| 20260507104132 | 66 | 100 | 1.0 | 5.0 | 0.00 | 6.97 | 0.57 | 63 | 1013.9 |
| 20260507103122 | 66 | 147 | 2.0 | 6.0 | 0.00 | 6.97 | 0.57 | 61 | 1013.9 |
| 20260507102130 | 65 | 92 | 2.0 | 5.0 | 0.00 | 6.97 | 0.57 | 66 | 1013.9 |
| 20260507101135 | 65 | 103 | 1.0 | 4.0 | 0.00 | 6.97 | 0.57 | 62 | 1014.0 |
| 20260507100119 | 66 | 74 | 3.0 | 8.0 | 0.00 | 6.97 | 0.57 | 61 | 1014.1 |
| 20260507095130 | 65 | 25 | 2.0 | 6.0 | 0.00 | 6.97 | 0.57 | 70 | 1014.0 |
| 20260507094138 | 65 | 212 | 1.0 | 6.0 | 0.00 | 6.97 | 0.57 | 67 | 1014.1 |
| 20260507093126 | 64 | 83 | 0.0 | 5.0 | 0.00 | 6.97 | 0.57 | 63 | 1014.1 |
| 20260507092132 | 64 | 90 | 1.0 | 4.0 | 0.00 | 6.97 | 0.57 | 67 | 1013.9 |
| 20260507091125 | 64 | 60 | 2.0 | 5.0 | 0.00 | 6.97 | 0.57 | 66 | 1013.9 |
| 20260507090133 | 64 | 48 | 2.0 | 4.0 | 0.00 | 6.97 | 0.57 | 72 | 1013.9 |
| 20260507085121 | 64 | 186 | 1.0 | 2.0 | 0.00 | 6.97 | 0.57 | 72 | 1013.9 |
| 20260507084128 | 63 | 186 | 1.0 | 3.0 | 0.00 | 6.97 | 0.57 | 68 | 1013.9 |
| 20260507083140 | 62 | 184 | 1.0 | 6.0 | 0.00 | 6.97 | 0.57 | 74 | 1013.8 |
| 20260507082144 | 62 | 104 | 2.0 | 6.0 | 0.00 | 6.97 | 0.57 | 70 | 1013.8 |
| 20260507081131 | 62 | 107 | 1.0 | 3.0 | 0.00 | 6.97 | 0.57 | 72 | 1013.8 |
| 20260507080118 | 61 | 34 | 1.0 | 4.0 | 0.00 | 6.97 | 0.57 | 76 | 1013.7 |
| 20260507075147 | 60 | 32 | 1.0 | 4.0 | 0.00 | 7.13 | 0.57 | 71 | 1013.7 |
| 20260507074138 | 59 | 48 | 2.0 | 5.0 | 0.00 | 7.13 | 0.57 | 75 | 1013.7 |
| 20260507073124 | 59 | 34 | 1.0 | 6.0 | 0.00 | 7.13 | 0.57 | 77 | 1013.7 |
| 20260507072132 | 59 | 34 | 3.0 | 5.0 | 0.00 | 7.13 | 0.57 | 76 | 1013.7 |
| 20260507071123 | 58 | 32 | 2.0 | 6.0 | 0.00 | 7.13 | 0.57 | 81 | 1013.7 |
| 20260507070130 | 57 | 46 | 2.0 | 5.0 | 0.00 | 7.13 | 0.57 | 83 | 1013.6 |
| 20260507065140 | 57 | 51 | 1.0 | 5.0 | 0.00 | 7.13 | 0.57 | 83 | 1013.4 |
| 20260507064126 | 56 | 36 | 2.0 | 5.0 | 0.00 | 7.13 | 0.57 | 82 | 1013.3 |
| 20260507063137 | 56 | 53 | 2.0 | 5.0 | 0.00 | 7.13 | 0.57 | 84 | 1013.3 |
| 20260507062125 | 55 | 44 | 0.0 | 3.0 | 0.00 | 7.13 | 0.57 | 86 | 1013.3 |
| 20260507061132 | 54 | 360 | 3.0 | 8.0 | 0.00 | 7.13 | 0.57 | 86 | 1013.1 |
| 20260507060140 | 53 | 17 | 1.0 | 8.0 | 0.00 | 7.13 | 0.57 | 88 | 1013.1 |
| 20260507055131 | 52 | 29 | 1.0 | 6.0 | 0.00 | 7.36 | 0.57 | 89 | 1013.1 |
| 20260507054119 | 52 | 38 | 2.0 | 5.0 | 0.00 | 7.36 | 0.57 | 91 | 1013.0 |
| 20260507053127 | 52 | 24 | 2.0 | 7.0 | 0.00 | 7.36 | 0.57 | 91 | 1012.9 |
| 20260507052132 | 51 | 41 | 2.0 | 8.0 | 0.00 | 7.36 | 0.57 | 91 | 1012.8 |
| 20260507051124 | 51 | 81 | 1.0 | 10.0 | 0.00 | 7.36 | 0.57 | 91 | 1012.7 |
| 20260507050133 | 51 | 28 | 1.0 | 9.0 | 0.00 | 7.36 | 0.57 | 91 | 1012.5 |
| 20260507045139 | 50 | 24 | 1.0 | 5.0 | 0.00 | 7.56 | 0.57 | 91 | 1012.5 |
| 20260507044127 | 50 | 13 | 2.0 | 9.0 | 0.00 | 7.56 | 0.57 | 91 | 1012.3 |
| 20260507043118 | 50 | 51 | 2.0 | 8.0 | 0.00 | 7.56 | 0.57 | 92 | 1012.2 |
| 20260507042125 | 50 | 350 | 1.0 | 4.0 | 0.00 | 7.56 | 0.57 | 92 | 1012.1 |
| 20260507041133 | 50 | 56 | 1.0 | 9.0 | 0.00 | 7.56 | 0.57 | 93 | 1012.1 |
| 20260507040121 | 50 | 29 | 2.0 | 8.0 | 0.00 | 7.56 | 0.57 | 93 | 1012.1 |
| 20260507035132 | 50 | 54 | 2.0 | 10.0 | 0.00 | 7.64 | 0.57 | 94 | 1012.1 |
| 20260507034138 | 50 | 32 | 2.0 | 5.0 | 0.00 | 7.64 | 0.57 | 93 | 1012.1 |
| 20260507033145 | 50 | 42 | 1.0 | 6.0 | 0.00 | 7.64 | 0.57 | 93 | 1012.0 |
| 20260507032130 | 51 | 350 | 1.0 | 6.0 | 0.00 | 7.64 | 0.57 | 93 | 1012.1 |
| 20260507031120 | 51 | 36 | 2.0 | 5.0 | 0.00 | 7.64 | 0.57 | 93 | 1012.1 |
| 20260507030129 | 51 | 36 | 1.0 | 5.0 | 0.00 | 7.64 | 0.57 | 93 | 1012.0 |
| 20260507025138 | 51 | 36 | 0.0 | 4.0 | 0.00 | 7.80 | 0.57 | 93 | 1011.9 |
| 20260507024125 | 51 | 32 | 1.0 | 4.0 | 0.00 | 7.80 | 0.57 | 93 | 1011.9 |
| 20260507023119 | 51 | 27 | 1.0 | 5.0 | 0.00 | 7.80 | 0.57 | 94 | 1012.1 |
| 20260507022122 | 52 | 355 | 1.0 | 6.0 | 0.00 | 7.80 | 0.57 | 94 | 1012.0 |
| 20260507021131 | 52 | 33 | 1.0 | 4.0 | 0.04 | 7.80 | 0.57 | 94 | 1012.1 |
| 20260507020122 | 52 | 32 | 2.0 | 5.0 | 0.12 | 7.80 | 0.57 | 93 | 1012.0 |
| 20260507015130 | 52 | 77 | 1.0 | 5.0 | 0.16 | 7.80 | 0.57 | 93 | 1011.9 |
| 20260507014135 | 52 | 132 | 1.0 | 5.0 | 0.16 | 7.80 | 0.57 | 94 | 1011.9 |
| 20260507013120 | 52 | 34 | 0.0 | 3.0 | 0.16 | 7.80 | 0.57 | 94 | 1012.0 |
| 20260507012130 | 52 | 39 | 1.0 | 5.0 | 0.16 | 7.80 | 0.57 | 94 | 1011.9 |
| 20260507011159 | 52 | 82 | 0.0 | 5.0 | 0.12 | 7.76 | 0.56 | 93 | 1011.8 |
| 20260507010124 | 52 | 338 | 1.0 | 2.0 | 0.04 | 7.68 | 0.54 | 94 | 1011.7 |
| 20260507005133 | 52 | 339 | 1.0 | 4.0 | 0.00 | 7.64 | 0.53 | 94 | 1011.7 |
| 20260507004125 | 52 | 5 | 1.0 | 4.0 | 0.00 | 7.64 | 0.53 | 94 | 1011.8 |
| 20260507003131 | 52 | 28 | 1.0 | 3.0 | 0.00 | 7.64 | 0.53 | 94 | 1011.8 |
| 20260507002156 | 52 | 33 | 1.0 | 8.0 | 0.00 | 7.64 | 0.53 | 93 | 1011.8 |
| 20260507001141 | 52 | 51 | 1.0 | 2.0 | 0.00 | 7.64 | 0.53 | 94 | 1011.8 |
| 20260507000127 | 52 | 355 | 0.0 | 5.0 | 0.04 | 7.64 | 0.53 | 94 | 1011.7 |
| 20260506235138 | 52 | 221 | 0.0 | 5.0 | 0.20 | 7.64 | 0.53 | 94 | 1011.7 |
| 20260506234125 | 52 | 132 | 1.0 | 3.0 | 0.43 | 7.64 | 0.53 | 94 | 1011.8 |
| 20260506233151 | 52 | 351 | 2.0 | 6.0 | 0.71 | 7.64 | 0.53 | 94 | 1011.8 |
| 20260506232137 | 52 | 9 | 1.0 | 4.0 | 0.83 | 7.64 | 0.53 | 94 | 1011.7 |
| 20260506231129 | 52 | 159 | 0.0 | 1.0 | 1.30 | 7.64 | 0.53 | 95 | 1011.7 |
| 20260506230138 | 52 | 159 | 0.0 | 1.0 | 1.97 | 7.60 | 0.52 | 95 | 1011.7 |